| time (UTC) | temp C | wind direction | speed KPH | gust KPH | rain 1hr cm | rain 24hr cm | rain mn cm | humidity % | barometer mb |
| 20260503060220 | 1 | 276 | 0.0 | 0.0 | 0.00 | 0.00 | 0.00 | 84 | 1016.7 |
| 20260503054707 | 1 | 276 | 0.0 | 0.0 | 0.00 | 0.00 | 0.00 | 83 | 1016.8 |
| 20260503054205 | 1 | 276 | 0.0 | 0.0 | 0.00 | 0.00 | 0.00 | 83 | 1017.0 |
| 20260503053703 | 1 | 276 | 0.0 | 0.0 | 0.00 | 0.00 | 0.00 | 82 | 1016.9 |
| 20260503053201 | 1 | 276 | 0.0 | 0.0 | 0.00 | 0.00 | 0.00 | 82 | 1016.7 |
| 20260503052657 | 1 | 276 | 0.0 | 0.0 | 0.00 | 0.00 | 0.00 | 82 | 1016.8 |
| 20260503052153 | 1 | 276 | 0.0 | 0.0 | 0.00 | 0.00 | 0.00 | 82 | 1017.0 |
| 20260503051649 | 1 | 276 | 0.0 | 0.0 | 0.00 | 0.00 | 0.00 | 81 | 1017.0 |
| 20260503051147 | 1 | 276 | 0.0 | 0.0 | 0.00 | 0.00 | 0.00 | 81 | 1017.0 |
| 20260503050643 | 1 | 276 | 0.0 | 0.0 | 0.00 | 0.00 | 0.00 | 81 | 1017.0 |
| 20260503050140 | 1 | 276 | 0.0 | 0.0 | 0.00 | 0.00 | 0.00 | 81 | 1017.0 |
| 20260503045637 | 1 | 276 | 0.0 | 0.0 | 0.00 | 0.00 | 0.00 | 80 | 1017.0 |
| 20260503045134 | 1 | 276 | 0.0 | 0.0 | 0.00 | 0.00 | 0.00 | 79 | 1016.9 |
| 20260503044631 | 1 | 276 | 0.0 | 0.0 | 0.00 | 0.00 | 0.00 | 79 | 1016.9 |
| 20260503044129 | 2 | 276 | 0.0 | 0.0 | 0.00 | 0.00 | 0.00 | 78 | 1017.2 |
| 20260503043625 | 2 | 276 | 0.0 | 0.0 | 0.00 | 0.00 | 0.00 | 77 | 1017.0 |
| 20260503043122 | 2 | 276 | 0.0 | 0.0 | 0.00 | 0.00 | 0.00 | 77 | 1016.9 |
| 20260503042619 | 2 | 276 | 0.0 | 0.0 | 0.00 | 0.00 | 0.00 | 76 | 1016.8 |
| 20260503042114 | 2 | 276 | 0.0 | 0.0 | 0.00 | 0.00 | 0.00 | 76 | 1016.8 |
| 20260503041611 | 2 | 276 | 0.0 | 0.0 | 0.00 | 0.00 | 0.00 | 76 | 1017.1 |
| 20260503041109 | 2 | 276 | 0.0 | 0.0 | 0.00 | 0.00 | 0.00 | 74 | 1016.9 |
| 20260503040606 | 2 | 276 | 0.0 | 0.0 | 0.00 | 0.00 | 0.00 | 73 | 1016.9 |
| 20260503040103 | 2 | 276 | 0.0 | 0.0 | 0.00 | 0.00 | 0.00 | 73 | 1017.1 |
| 20260503035600 | 3 | 276 | 0.0 | 0.0 | 0.00 | 0.00 | 0.00 | 73 | 1017.0 |
| 20260503035058 | 3 | 276 | 0.0 | 0.0 | 0.00 | 0.00 | 0.00 | 73 | 1017.0 |
| 20260503034555 | 3 | 276 | 0.0 | 0.0 | 0.00 | 0.00 | 0.00 | 72 | 1017.0 |
| 20260503034052 | 3 | 276 | 0.0 | 0.0 | 0.00 | 0.00 | 0.00 | 72 | 1017.1 |
| 20260503033549 | 3 | 276 | 0.0 | 0.0 | 0.00 | 0.00 | 0.00 | 71 | 1017.0 |
| 20260503033047 | 3 | 276 | 0.0 | 0.0 | 0.00 | 0.00 | 0.00 | 71 | 1017.1 |
| 20260503032545 | 3 | 276 | 0.0 | 0.0 | 0.00 | 0.00 | 0.00 | 70 | 1017.0 |
| 20260503032043 | 3 | 276 | 0.0 | 0.0 | 0.00 | 0.00 | 0.00 | 70 | 1016.9 |
| 20260503031540 | 3 | 276 | 0.0 | 0.0 | 0.00 | 0.00 | 0.00 | 70 | 1017.0 |
| 20260503031037 | 4 | 276 | 0.0 | 0.0 | 0.00 | 0.00 | 0.00 | 70 | 1017.1 |
| 20260503030533 | 4 | 276 | 0.0 | 0.0 | 0.00 | 0.00 | 0.00 | 69 | 1017.1 |
| 20260503030031 | 4 | 276 | 0.0 | 0.0 | 0.00 | 0.00 | 0.00 | 69 | 1017.0 |
| 20260503025527 | 4 | 276 | 0.0 | 0.0 | 0.00 | 0.00 | 0.00 | 68 | 1017.1 |
| 20260503025025 | 4 | 276 | 0.0 | 0.0 | 0.00 | 0.00 | 0.00 | 68 | 1017.3 |
| 20260503024521 | 5 | 276 | 0.0 | 0.0 | 0.00 | 0.00 | 0.00 | 68 | 1017.3 |
| 20260503024018 | 5 | 276 | 0.0 | 0.0 | 0.00 | 0.00 | 0.00 | 67 | 1017.1 |
| 20260503023515 | 5 | 276 | 0.0 | 0.0 | 0.00 | 0.00 | 0.00 | 67 | 1017.2 |
| 20260503023013 | 5 | 276 | 0.0 | 0.0 | 0.00 | 0.00 | 0.00 | 67 | 1017.2 |
| 20260503022508 | 5 | 277 | 0.0 | 0.0 | 0.00 | 0.00 | 0.00 | 66 | 1017.3 |
| 20260503022003 | 5 | 277 | 0.0 | 0.0 | 0.00 | 0.00 | 0.00 | 66 | 1017.3 |
| 20260503021500 | 5 | 276 | 0.0 | 0.0 | 0.00 | 0.00 | 0.00 | 65 | 1017.3 |
| 20260503020957 | 5 | 277 | 0.0 | 0.0 | 0.00 | 0.00 | 0.00 | 66 | 1017.0 |
| 20260503020454 | 5 | 276 | 0.0 | 0.0 | 0.00 | 0.00 | 0.00 | 65 | 1017.1 |
| 20260503015951 | 5 | 277 | 0.0 | 0.0 | 0.00 | 0.00 | 0.00 | 65 | 1017.2 |
| 20260503015448 | 5 | 277 | 0.0 | 0.0 | 0.00 | 0.00 | 0.00 | 64 | 1017.2 |
| 20260503014944 | 5 | 277 | 0.0 | 0.0 | 0.00 | 0.00 | 0.00 | 64 | 1017.0 |
| 20260503014441 | 5 | 277 | 0.0 | 0.0 | 0.00 | 0.00 | 0.00 | 64 | 1017.2 |
| 20260503013939 | 5 | 277 | 0.0 | 0.0 | 0.00 | 0.00 | 0.00 | 64 | 1017.1 |
| 20260503013436 | 5 | 277 | 0.0 | 0.0 | 0.00 | 0.00 | 0.00 | 63 | 1017.2 |
| 20260503012933 | 5 | 277 | 0.0 | 0.0 | 0.00 | 0.00 | 0.00 | 63 | 1017.1 |
| 20260503012431 | 5 | 277 | 0.0 | 0.0 | 0.00 | 0.00 | 0.00 | 63 | 1016.9 |
| 20260503011927 | 6 | 277 | 0.0 | 0.0 | 0.00 | 0.00 | 0.00 | 62 | 1016.9 |
| 20260503011424 | 6 | 277 | 0.0 | 0.0 | 0.00 | 0.00 | 0.00 | 60 | 1017.0 |
| 20260503010921 | 6 | 277 | 0.0 | 0.0 | 0.00 | 0.00 | 0.00 | 60 | 1017.1 |
| 20260503010418 | 6 | 277 | 0.0 | 0.0 | 0.00 | 0.00 | 0.00 | 59 | 1016.8 |
| 20260503005915 | 6 | 277 | 0.0 | 0.0 | 0.00 | 0.00 | 0.00 | 58 | 1017.2 |
| 20260503005412 | 6 | 277 | 0.0 | 0.0 | 0.00 | 0.00 | 0.00 | 57 | 1017.0 |
| 20260503004908 | 6 | 277 | 0.0 | 0.0 | 0.00 | 0.00 | 0.00 | 57 | 1017.0 |
| 20260503004405 | 6 | 277 | 0.0 | 0.0 | 0.00 | 0.00 | 0.00 | 55 | 1017.0 |
| 20260503003903 | 6 | 279 | 0.0 | 0.0 | 0.00 | 0.00 | 0.00 | 54 | 1016.9 |
| 20260503003359 | 7 | 295 | 0.0 | 0.0 | 0.00 | 0.00 | 0.00 | 52 | 1017.0 |
| 20260503002857 | 7 | 297 | 0.0 | 0.0 | 0.00 | 0.00 | 0.00 | 51 | 1016.9 |
| 20260503002354 | 7 | 295 | 0.0 | 0.0 | 0.00 | 0.00 | 0.00 | 50 | 1016.9 |
| 20260503001850 | 7 | 296 | 0.0 | 0.0 | 0.00 | 0.00 | 0.00 | 51 | 1016.9 |
| 20260503001346 | 7 | 296 | 0.0 | 0.0 | 0.00 | 0.00 | 0.00 | 50 | 1016.7 |
| 20260503000844 | 7 | 302 | 0.0 | 0.0 | 0.00 | 0.00 | 0.00 | 49 | 1016.8 |
| 20260503000341 | 7 | 289 | 0.0 | 0.0 | 0.00 | 0.00 | 0.00 | 47 | 1016.7 |
| 20260502235838 | 8 | 292 | 0.0 | 0.0 | 0.00 | 0.00 | 0.00 | 48 | 1016.7 |
| 20260502235335 | 8 | 297 | 1.6 | 3.2 | 0.00 | 0.00 | 0.00 | 46 | 1016.8 |
| 20260502234832 | 8 | 333 | 3.2 | 3.2 | 0.00 | 0.00 | 0.00 | 46 | 1016.9 |
| 20260502234329 | 8 | 289 | 0.0 | 1.6 | 0.00 | 0.00 | 0.00 | 47 | 1016.8 |
| 20260502233826 | 8 | 311 | 1.6 | 4.8 | 0.00 | 0.00 | 0.00 | 46 | 1016.9 |
| 20260502233322 | 8 | 285 | 0.0 | 1.6 | 0.00 | 0.00 | 0.00 | 47 | 1017.0 |
| 20260502232819 | 8 | 312 | 1.6 | 1.6 | 0.00 | 0.00 | 0.00 | 47 | 1016.9 |
| 20260502232316 | 8 | 334 | 1.6 | 3.2 | 0.00 | 0.00 | 0.00 | 47 | 1016.6 |
| 20260502231812 | 8 | 322 | 0.0 | 1.6 | 0.00 | 0.00 | 0.00 | 48 | 1016.7 |
| 20260502231310 | 8 | 354 | 0.0 | 1.6 | 0.00 | 0.00 | 0.00 | 47 | 1016.9 |
| 20260502230808 | 8 | 318 | 0.0 | 0.0 | 0.00 | 0.00 | 0.00 | 47 | 1016.9 |
| 20260502230306 | 8 | 321 | 0.0 | 3.2 | 0.00 | 0.00 | 0.00 | 46 | 1016.9 |
| 20260502225802 | 8 | 309 | 0.0 | 3.2 | 0.00 | 0.00 | 0.00 | 46 | 1016.9 |
| 20260502225259 | 8 | 314 | 1.6 | 4.8 | 0.00 | 0.00 | 0.00 | 45 | 1016.9 |
| 20260502224755 | 8 | 328 | 3.2 | 4.8 | 0.00 | 0.00 | 0.00 | 45 | 1016.8 |
| 20260502224252 | 8 | 16 | 3.2 | 6.4 | 0.00 | 0.00 | 0.00 | 45 | 1016.9 |
| 20260502223749 | 8 | 293 | 3.2 | 3.2 | 0.00 | 0.00 | 0.00 | 45 | 1017.0 |
| 20260502223248 | 8 | 0 | 1.6 | 6.4 | 0.00 | 0.00 | 0.00 | 47 | 1017.0 |
| 20260502222745 | 8 | 271 | 3.2 | 6.4 | 0.00 | 0.00 | 0.00 | 45 | 1016.8 |
| 20260502222242 | 8 | 331 | 0.0 | 3.2 | 0.00 | 0.00 | 0.00 | 46 | 1017.1 |
| 20260502221737 | 8 | 308 | 1.6 | 3.2 | 0.00 | 0.00 | 0.00 | 46 | 1017.1 |
| 20260502221234 | 8 | 282 | 1.6 | 3.2 | 0.00 | 0.00 | 0.00 | 45 | 1017.1 |
| 20260502220731 | 8 | 87 | 3.2 | 9.7 | 0.00 | 0.00 | 0.00 | 45 | 1017.0 |
| 20260502220227 | 8 | 336 | 3.2 | 6.4 | 0.00 | 0.00 | 0.00 | 44 | 1017.0 |
| 20260502215724 | 8 | 323 | 3.2 | 4.8 | 0.00 | 0.00 | 0.00 | 45 | 1017.1 |
| 20260502215221 | 8 | 345 | 3.2 | 4.8 | 0.00 | 0.00 | 0.00 | 47 | 1017.0 |
| 20260502214718 | 8 | 329 | 3.2 | 4.8 | 0.00 | 0.00 | 0.00 | 45 | 1017.0 |
| 20260502214215 | 8 | 279 | 4.8 | 4.8 | 0.00 | 0.00 | 0.00 | 47 | 1017.1 |
| 20260502213712 | 8 | 339 | 3.2 | 4.8 | 0.00 | 0.00 | 0.00 | 45 | 1017.0 |
| 20260502213210 | 8 | 328 | 3.2 | 4.8 | 0.00 | 0.00 | 0.00 | 49 | 1017.0 |
| 20260502212708 | 8 | 231 | 1.6 | 4.8 | 0.00 | 0.00 | 0.00 | 45 | 1016.9 |
| 20260502212206 | 8 | 327 | 3.2 | 4.8 | 0.00 | 0.00 | 0.00 | 47 | 1016.9 |
| 20260502211702 | 8 | 315 | 1.6 | 6.4 | 0.00 | 0.00 | 0.00 | 45 | 1016.9 |
| 20260502211159 | 8 | 347 | 1.6 | 6.4 | 0.00 | 0.00 | 0.00 | 45 | 1016.8 |
| 20260502210656 | 8 | 320 | 3.2 | 6.4 | 0.00 | 0.00 | 0.00 | 45 | 1016.8 |
| 20260502210153 | 8 | 326 | 1.6 | 4.8 | 0.00 | 0.00 | 0.00 | 45 | 1016.9 |
| 20260502205650 | 8 | 9 | 3.2 | 4.8 | 0.00 | 0.00 | 0.00 | 47 | 1017.0 |
| 20260502205147 | 8 | 292 | 4.8 | 6.4 | 0.00 | 0.00 | 0.00 | 48 | 1016.8 |
| 20260502204643 | 8 | 325 | 3.2 | 4.8 | 0.00 | 0.00 | 0.00 | 48 | 1016.9 |
| 20260502204141 | 8 | 324 | 3.2 | 9.7 | 0.00 | 0.00 | 0.00 | 47 | 1017.0 |
| 20260502203638 | 8 | 311 | 3.2 | 4.8 | 0.00 | 0.00 | 0.00 | 48 | 1016.9 |
| 20260502203137 | 8 | 340 | 3.2 | 4.8 | 0.00 | 0.00 | 0.00 | 47 | 1016.9 |
| 20260502202631 | 8 | 285 | 3.2 | 12.9 | 0.00 | 0.00 | 0.00 | 47 | 1017.1 |
| 20260502202129 | 8 | 338 | 3.2 | 9.7 | 0.00 | 0.00 | 0.00 | 48 | 1017.1 |
| 20260502201625 | 8 | 2 | 3.2 | 4.8 | 0.00 | 0.00 | 0.00 | 49 | 1017.0 |
| 20260502201116 | 8 | 312 | 4.8 | 6.4 | 0.00 | 0.00 | 0.00 | 50 | 1017.2 |
| 20260502200612 | 8 | 305 | 3.2 | 6.4 | 0.00 | 0.00 | 0.00 | 49 | 1017.2 |
| 20260502200110 | 8 | 307 | 1.6 | 3.2 | 0.00 | 0.00 | 0.00 | 49 | 1017.3 |
| 20260502195608 | 8 | 350 | 1.6 | 6.4 | 0.00 | 0.00 | 0.00 | 48 | 1017.4 |
| 20260502195103 | 8 | 344 | 3.2 | 9.7 | 0.00 | 0.00 | 0.00 | 47 | 1017.3 |
| 20260502194600 | 8 | 337 | 1.6 | 6.4 | 0.00 | 0.00 | 0.00 | 50 | 1017.4 |
| 20260502194056 | 8 | 324 | 1.6 | 6.4 | 0.00 | 0.00 | 0.00 | 49 | 1017.3 |
| 20260502193553 | 8 | 328 | 4.8 | 6.4 | 0.00 | 0.00 | 0.00 | 50 | 1017.4 |
| 20260502193050 | 8 | 309 | 1.6 | 9.7 | 0.00 | 0.00 | 0.00 | 48 | 1017.4 |
| 20260502192545 | 8 | 335 | 1.6 | 6.4 | 0.00 | 0.00 | 0.00 | 48 | 1017.4 |
| 20260502192043 | 8 | 7 | 1.6 | 3.2 | 0.00 | 0.00 | 0.00 | 49 | 1017.6 |
| 20260502191540 | 7 | 291 | 1.6 | 4.8 | 0.00 | 0.00 | 0.00 | 50 | 1017.3 |
| 20260502191038 | 8 | 3 | 6.4 | 6.4 | 0.00 | 0.00 | 0.00 | 50 | 1017.4 |
| 20260502190535 | 8 | 240 | 3.2 | 4.8 | 0.00 | 0.00 | 0.00 | 50 | 1017.6 |
| 20260502190032 | 8 | 346 | 1.6 | 4.8 | 0.00 | 0.00 | 0.00 | 48 | 1017.8 |
| 20260502185527 | 8 | 331 | 3.2 | 4.8 | 0.00 | 0.00 | 0.00 | 46 | 1017.8 |
| 20260502185024 | 8 | 109 | 0.0 | 1.6 | 0.00 | 0.00 | 0.00 | 50 | 1017.8 |
| 20260502184520 | 8 | 224 | 1.6 | 3.2 | 0.00 | 0.00 | 0.00 | 46 | 1017.6 |
| 20260502184016 | 8 | 345 | 4.8 | 9.7 | 0.00 | 0.00 | 0.00 | 47 | 1017.9 |
| 20260502183512 | 8 | 296 | 3.2 | 6.4 | 0.00 | 0.00 | 0.00 | 44 | 1018.0 |
| 20260502183008 | 8 | 345 | 3.2 | 4.8 | 0.00 | 0.00 | 0.00 | 46 | 1017.9 |
| 20260502182503 | 8 | 98 | 1.6 | 3.2 | 0.00 | 0.00 | 0.00 | 46 | 1017.8 |
| 20260502182000 | 8 | 260 | 3.2 | 6.4 | 0.00 | 0.00 | 0.00 | 46 | 1017.8 |
| 20260502181458 | 8 | 279 | 1.6 | 4.8 | 0.00 | 0.00 | 0.00 | 46 | 1017.9 |
| 20260502180956 | 8 | 347 | 3.2 | 6.4 | 0.00 | 0.00 | 0.00 | 48 | 1018.0 |
| 20260502180453 | 8 | 26 | 0.0 | 3.2 | 0.00 | 0.00 | 0.00 | 50 | 1017.6 |
| 20260502170412 | 7 | 341 | 6.4 | 9.7 | 0.00 | 0.00 | 0.00 | 54 | 1018.3 |
| 20260502163855 | 7 | 322 | 4.8 | 11.3 | 0.00 | 0.00 | 0.00 | 54 | 1018.6 |
| 20260502163351 | 7 | 326 | 3.2 | 4.8 | 0.00 | 0.00 | 0.00 | 53 | 1018.5 |
| 20260502162849 | 7 | 343 | 3.2 | 4.8 | 0.00 | 0.00 | 0.00 | 54 | 1018.4 |
| 20260502162345 | 7 | 78 | 1.6 | 9.7 | 0.00 | 0.00 | 0.00 | 55 | 1018.6 |
| 20260502161843 | 7 | 323 | 3.2 | 3.2 | 0.00 | 0.00 | 0.00 | 55 | 1018.7 |
| 20260502161339 | 7 | 322 | 6.4 | 9.7 | 0.00 | 0.00 | 0.00 | 54 | 1018.7 |
| 20260502160837 | 7 | 330 | 3.2 | 6.4 | 0.00 | 0.00 | 0.00 | 51 | 1018.6 |
| 20260502160335 | 7 | 0 | 1.6 | 4.8 | 0.00 | 0.00 | 0.00 | 56 | 1018.6 |
| 20260502152305 | 6 | 326 | 3.2 | 9.7 | 0.00 | 0.00 | 0.00 | 54 | 1018.6 |
| 20260502151802 | 6 | 319 | 1.6 | 6.4 | 0.00 | 0.00 | 0.00 | 57 | 1018.5 |
| 20260502151259 | 6 | 334 | 3.2 | 4.8 | 0.00 | 0.00 | 0.00 | 58 | 1018.3 |
| 20260502150757 | 6 | 320 | 6.4 | 9.7 | 0.00 | 0.00 | 0.00 | 57 | 1018.3 |
| 20260502150253 | 6 | 330 | 4.8 | 4.8 | 0.00 | 0.00 | 0.00 | 58 | 1018.5 |
| 20260502130642 | 5 | 331 | 0.0 | 4.8 | 0.00 | 0.00 | 0.00 | 73 | 1017.9 |
| 20260502130139 | 5 | 327 | 1.6 | 3.2 | 0.00 | 0.00 | 0.00 | 73 | 1017.6 |
| 20260502123625 | 4 | 324 | 0.0 | 3.2 | 0.00 | 0.00 | 0.00 | 76 | 1017.9 |
| 20260502123121 | 3 | 312 | 0.0 | 4.8 | 0.00 | 0.00 | 0.00 | 76 | 1017.8 |
| 20260502122618 | 3 | 314 | 1.6 | 6.4 | 0.00 | 0.00 | 0.00 | 75 | 1017.5 |
| 20260502122115 | 3 | 6 | 1.6 | 3.2 | 0.00 | 0.00 | 0.00 | 76 | 1017.5 |
| 20260502121613 | 3 | 314 | 1.6 | 6.4 | 0.00 | 0.00 | 0.00 | 75 | 1017.5 |
| 20260502121110 | 3 | 347 | 3.2 | 4.8 | 0.00 | 0.00 | 0.00 | 76 | 1017.5 |
| 20260502120606 | 3 | 333 | 0.0 | 3.2 | 0.00 | 0.00 | 0.00 | 76 | 1017.5 |
| 20260502115602 | 2 | 344 | 1.6 | 3.2 | 0.00 | 0.00 | 0.00 | 78 | 1017.5 |
| 20260502115102 | 2 | 305 | 3.2 | 3.2 | 0.00 | 0.00 | 0.00 | 79 | 1017.5 |
| 20260502114559 | 2 | 330 | 1.6 | 3.2 | 0.00 | 0.00 | 0.00 | 80 | 1017.6 |
| 20260502114055 | 1 | 354 | 1.6 | 3.2 | 0.00 | 0.00 | 0.00 | 81 | 1017.5 |
| 20260502113553 | 1 | 347 | 1.6 | 3.2 | 0.00 | 0.00 | 0.00 | 82 | 1017.4 |
| 20260502113051 | 1 | 329 | 1.6 | 3.2 | 0.00 | 0.00 | 0.00 | 82 | 1017.3 |
| 20260502112549 | 1 | 339 | 1.6 | 1.6 | 0.00 | 0.00 | 0.00 | 83 | 1017.3 |
| 20260502112046 | 1 | 336 | 0.0 | 4.8 | 0.00 | 0.00 | 0.00 | 83 | 1017.4 |
| 20260502111544 | 1 | 358 | 1.6 | 1.6 | 0.00 | 0.00 | 0.00 | 84 | 1017.2 |
| 20260502111041 | 1 | 321 | 0.0 | 1.6 | 0.00 | 0.00 | 0.00 | 84 | 1017.4 |
| 20260502110538 | 0 | 326 | 0.0 | 1.6 | 0.00 | 0.00 | 0.00 | 84 | 1017.2 |
| 20260502110036 | 0 | 351 | 0.0 | 1.6 | 0.00 | 0.00 | 0.00 | 84 | 1017.1 |
| 20260502105533 | 0 | 356 | 1.6 | 3.2 | 0.00 | 0.00 | 0.00 | 84 | 1017.1 |
| 20260502105031 | 0 | 313 | 0.0 | 0.0 | 0.00 | 0.00 | 0.00 | 84 | 1017.1 |
| 20260502104527 | 0 | 10 | 3.2 | 3.2 | 0.00 | 0.00 | 0.00 | 84 | 1017.1 |
| 20260502104025 | 0 | 336 | 1.6 | 3.2 | 0.00 | 0.00 | 0.00 | 83 | 1017.0 |
| 20260502103522 | 0 | 320 | 1.6 | 4.8 | 0.00 | 0.00 | 0.00 | 83 | 1017.0 |
| 20260502103021 | 0 | 319 | 0.0 | 1.6 | 0.00 | 0.00 | 0.00 | 83 | 1017.1 |
| 20260502102516 | 0 | 325 | 0.0 | 3.2 | 0.00 | 0.00 | 0.00 | 83 | 1017.0 |
| 20260502102014 | 0 | 316 | 1.6 | 3.2 | 0.00 | 0.00 | 0.00 | 82 | 1016.9 |
| 20260502101512 | 0 | 319 | 1.6 | 3.2 | 0.00 | 0.00 | 0.00 | 82 | 1016.8 |
| 20260502101010 | 0 | 321 | 3.2 | 4.8 | 0.00 | 0.00 | 0.00 | 81 | 1017.1 |
| 20260502100508 | 1 | 351 | 1.6 | 3.2 | 0.00 | 0.00 | 0.00 | 81 | 1016.9 |
| 20260502091442 | 1 | 313 | 3.2 | 4.8 | 0.00 | 0.00 | 0.00 | 78 | 1016.7 |
| 20260502090939 | 1 | 301 | 0.0 | 1.6 | 0.00 | 0.00 | 0.00 | 78 | 1016.8 |
| 20260502090436 | 1 | 287 | 0.0 | 3.2 | 0.00 | 0.00 | 0.00 | 78 | 1016.5 |
| 20260502071331 | 2 | 314 | 1.6 | 4.8 | 0.00 | 0.00 | 0.00 | 76 | 1016.5 |
| 20260502070829 | 2 | 306 | 0.0 | 1.6 | 0.00 | 0.00 | 0.00 | 76 | 1016.5 |
| 20260502070326 | 2 | 346 | 0.0 | 1.6 | 0.00 | 0.00 | 0.00 | 76 | 1016.5 |
| 20260502065825 | 2 | 284 | 0.0 | 3.2 | 0.00 | 0.00 | 0.00 | 76 | 1016.8 |
| 20260502065323 | 2 | 284 | 1.6 | 3.2 | 0.00 | 0.00 | 0.00 | 75 | 1016.6 |
| 20260502064821 | 2 | 247 | 1.6 | 6.4 | 0.00 | 0.00 | 0.00 | 75 | 1016.7 |
| 20260502064318 | 2 | 344 | 3.2 | 4.8 | 0.00 | 0.00 | 0.00 | 74 | 1016.7 |
| 20260502063815 | 2 | 349 | 0.0 | 3.2 | 0.00 | 0.00 | 0.00 | 74 | 1016.5 |
| 20260502063313 | 2 | 329 | 0.0 | 1.6 | 0.00 | 0.00 | 0.00 | 74 | 1016.7 |